Skip Page Navigation
NASA JPL Caltech
NASA Logo - Jet Propulsion Laboratory + View the NASA Portal
+ Center for Near-Earth Object Studies
JPL Home Earth Solar System Stars & Galaxies Technology
JPL Solar System Dynamics
BODIES ORBITS EPHEMERIDES TOOLS PHYSICAL DATA DISCOVERY FAQ SITE MAP
IMPORTANT: The SSD Announcement email list is now available. Major changes are coming in the near future, including possible hostname and/or URL changes. To be notified of such changes, subscribe to this email list.

Please visit this page for more details.


JPL Small-Body Database Browser
Search: [ help ]  
266466 (2007 PZ17)
Classification: Main-belt Asteroid          SPK-ID: 2266466
Ephemeris | Orbit Diagram | Orbital Elements | Mission Design | Physical Parameters | Discovery Circumstances | Close-Approach Data ]

[ show orbit diagram ]
Orbital Elements at Epoch 2458600.5 (2019-Apr-27.0) TDB
Reference: JPL 15 (heliocentric ecliptic J2000)
 Element Value Uncertainty (1-sigma)   Units 
e .1754022310021066 4.878e-08  
a 3.140669678331323 3.6846e-08 au
q 2.58978920991134 1.4374e-07 au
i 14.69630470714477 5.8582e-06 deg
node 313.3935790397901 2.086e-05 deg
peri 308.471949505132 2.7529e-05 deg
M 79.53998498983519 1.9508e-05 deg
tp 2458151.325779030008
(2018-Feb-01.82577903)
0.00010907 TDB
period 2032.973976168863
5.57
3.5776e-05
9.795e-08
d
yr
n .1770804762973009 3.1162e-09 deg/d
Q 3.691550146751306 4.3309e-08 au
  Orbit Determination Parameters
   # obs. used (total)      338  
   data-arc span      7215 days (19.75 yr)  
   first obs. used      2000-02-12  
   last obs. used      2019-11-14  
   planetary ephem.      DE431  
   SB-pert. ephem.      SB431-N16  
   condition code      0  
   norm. resid. RMS      .46726  
   source      ORB  
   producer      Otto Matic  
   solution date      2019-Dec-04 19:34:01  

Additional Information
 Earth MOID = 1.60244 au 
 Jupiter MOID = 1.64563 au 
 T_jup = 3.136 
[ show covariance matrix ]

Ephemeris | Orbit Diagram | Orbital Elements | Mission Design | Physical Parameters | Discovery Circumstances | Close-Approach Data ]

Physical Parameter Table
Parameter Symbol Value Units Sigma Reference Notes
absolute magnitude H 15.1   n/a MPO454981  

266466 (2007 PZ17)          Discovered 2007-Aug-09 by LINEAR at Socorro
Reference: 20110218/Numbers.arcLast Updated: 2011-02-22

[ show close-approach data ]
Alternate Designations
 2007 PZ17 = 2006 FW51 
Ephemeris | Orbit Diagram | Orbital Elements | Mission Design | Physical Parameters | Discovery Circumstances | Close-Approach Data ]
ABOUT SSD CREDITS/AWARDS PRIVACY/COPYRIGHT GLOSSARY LINKS
FirstGov 2019-Dec-07 06:41 UT
(server date/time)  
NASA Home Page
Site Manager:   Ryan S. Park
Webmaster  Alan B. Chamberlin